Wind_Speed
10 10 10 10 10 10 10 10 10 10 10 10 10 11 11 11 11 11 11 11 12 12 12 12 12 12 12 12 12 12 12 12 12 12 12 12 12 12 12 12 12 12 12 12 12 12 10 8 7 7 8 7 6 6 6 6 6 7 8 9 9 10 10 11 12 12 13 13 13 12 12 12 12 13 15 17 18 18 18 19 19 18 18 17 16 15 14 14
12 11 11 11 12 12 12 11 11 11 11 11 11 11 11 11 11 11 11 11 11 12 12 12 12 11 12 12 11 11 11 11 10 11 11 11 11 10 11 11 11 12 12 13 13 13 12 11 10 9 8 8 7 6 6 6 7 7 8 9 10 11 11 12 13 13 14 14 14 14 14 14 14 15 16 18 19 19 20 18 19 19 18 17 16 16 15 15
12 12 12 12 13 13 13 13 13 12 12 11 11 11 11 11 11 11 12 11 11 12 12 13 12 12 12 12 12 12 11 11 9 10 10 10 10 10 10 10 10 11 11 11 11 11 11 11 11 11 10 9 8 7 7 7 7 8 9 10 11 11 12 13 13 14 15 14 14 14 14 15 15 16 18 19 20 20 18 17 18 19 18 17 17 17 16 16
12 12 12 12 13 13 13 14 13 13 13 12 11 11 10 11 11 11 11 12 12 12 12 13 13 13 13 13 13 12 12 12 9 9 10 10 10 10 9 9 10 10 11 11 11 11 11 10 10 10 10 9 9 8 8 7 7 8 9 10 11 11 12 13 13 14 14 14 14 14 15 15 16 18 19 20 21 19 16 16 18 18 18 19 18 18 18 18
12 12 12 12 12 13 13 13 14 14 13 13 12 11 11 10 11 11 11 11 12 12 12 13 13 14 14 14 14 13 14 12 9 10 11 10 10 10 10 9 10 10 11 11 12 12 11 11 11 10 9 9 9 8 8 8 9 9 9 10 11 11 11 12 12 13 13 14 15 16 17 17 18 20 20 21 21 17 15 16 18 18 19 19 19 19 18 18
12 12 12 12 12 12 12 13 13 13 13 13 12 11 11 11 11 11 11 11 11 12 12 12 13 14 14 14 14 15 14 13 12 12 12 11 11 11 11 11 11 11 11 11 12 12 12 12 12 11 10 9 9 8 8 8 9 10 10 9 10 11 11 11 12 12 13 15 15 17 18 18 19 21 22 21 17 17 17 17 18 19 19 19 19 19 18 19
13 13 12 12 12 12 12 12 12 12 13 13 12 11 11 11 11 11 12 12 11 12 12 12 13 13 14 14 15 15 15 15 14 14 13 13 13 13 12 12 12 12 12 12 12 13 12 12 12 12 12 11 10 9 8 8 9 10 10 10 10 10 10 11 12 13 14 15 15 17 17 17 19 21 21 17 13 16 18 16 17 18 18 20 19 19 19 20
14 14 13 13 13 13 13 12 12 12 12 13 12 12 11 11 11 11 11 12 12 12 12 12 12 13 13 14 14 15 15 15 15 14 14 14 14 14 14 14 13 13 14 14 14 14 13 13 13 13 13 12 12 11 10 10 10 10 10 11 11 11 10 11 11 13 14 15 15 16 16 16 18 20 17 11 9 14 16 16 17 18 19 21 21 21 21 22
15 15 14 14 14 14 14 13 13 13 13 13 13 13 12 12 11 11 11 11 12 12 12 12 12 12 13 14 14 14 14 15 14 15 14 15 15 15 15 15 15 15 15 15 15 15 15 15 14 14 14 14 13 13 12 13 12 11 11 12 12 12 11 11 11 13 14 15 15 16 15 16 17 17 11 7 11 14 15 17 18 19 21 22 22 23 23 24
16 16 16 15 15 15 15 15 14 14 14 14 14 14 13 12 12 11 12 12 12 12 12 12 12 12 13 13 14 14 14 14 14 15 15 15 15 16 16 16 16 16 16 16 17 17 17 16 16 16 16 15 14 14 15 15 14 13 13 14 14 14 13 13 13 14 14 14 16 16 16 16 17 16 11 10 14 15 16 18 19 20 21 22 23 24 25 25
17 17 17 17 16 16 16 16 16 16 15 15 15 15 14 13 13 13 13 12 12 12 13 12 12 13 13 13 13 13 13 14 14 14 15 15 16 16 17 17 17 16 17 18 19 19 19 18 17 17 17 16 16 16 16 15 15 15 16 17 16 16 16 15 15 16 16 15 16 18 20 19 18 15 12 14 17 17 19 19 20 21 22 24 25 25 27 26
19 18 18 18 18 17 17 17 17 18 17 17 17 17 16 15 14 14 14 14 13 13 13 13 13 13 13 13 13 13 13 13 13 13 15 15 16 17 17 17 17 17 18 19 21 21 21 20 19 18 18 18 18 17 16 15 16 17 18 18 18 18 18 17 17 17 16 17 18 19 23 24 19 14 14 18 20 20 22 21 22 23 23 25 26 27 27 27
19 19 19 19 19 19 19 19 19 19 19 19 19 19 19 17 16 15 16 15 15 15 14 14 15 15 15 14 13 14 14 13 14 14 15 15 16 16 17 17 17 18 19 21 23 23 22 22 22 21 20 19 19 18 17 17 18 18 19 20 20 20 19 17 17 18 18 19 20 19 25 29 21 16 17 19 22 23 25 24 24 25 25 26 27 28 28 28
20 20 20 20 20 20 20 20 20 20 20 21 21 21 21 20 18 18 18 17 16 16 16 16 16 16 16 15 14 15 15 15 15 15 15 15 15 15 16 17 18 20 21 23 23 24 24 24 24 23 22 21 20 19 19 18 18 19 20 20 20 20 19 18 17 20 21 22 22 19 26 32 25 19 21 21 23 26 27 27 27 27 27 28 28 29 29 30
20 20 20 20 21 21 21 21 21 21 22 22 22 23 24 23 22 21 20 19 19 18 17 18 18 18 18 17 16 16 16 15 15 14 14 14 14 15 16 18 19 21 23 24 25 25 25 25 26 25 24 23 21 21 19 19 20 20 20 20 20 21 21 21 20 22 23 23 24 21 26 33 28 23 24 24 26 28 30 30 29 30 29 29 29 29 29 30
22 22 21 21 21 21 22 22 23 23 23 23 24 24 25 26 25 24 23 22 21 20 20 19 18 19 20 18 17 17 16 16 15 15 14 15 16 17 18 19 21 23 24 26 26 27 27 27 27 26 26 25 23 22 20 21 21 19 19 20 22 23 24 25 24 24 23 23 27 26 29 35 31 26 28 28 29 30 31 31 31 32 31 31 30 29 29 28
25 24 23 23 22 22 22 23 23 24 24 25 25 25 26 27 27 27 26 25 25 24 23 22 21 21 21 20 20 18 17 16 16 16 17 18 19 20 20 22 23 24 26 27 28 28 28 27 28 28 27 25 24 22 21 22 21 19 20 22 24 25 26 27 27 26 26 26 29 31 35 38 33 29 30 31 31 32 32 32 33 33 32 31 30 30 28 27
27 26 25 25 24 23 23 23 24 24 24 25 26 26 27 28 28 28 28 28 28 27 26 25 24 23 21 18 17 16 16 16 18 19 20 21 21 22 23 23 24 25 27 29 30 30 29 29 29 28 28 28 26 25 23 23 22 22 22 24 26 28 29 30 30 29 29 30 31 34 39 41 36 32 30 31 33 34 33 33 34 34 32 31 31 30 28 27
29 28 27 27 26 25 25 25 24 24 24 25 26 27 28 29 29 30 30 30 29 28 27 26 25 24 21 19 17 18 19 20 22 23 23 23 24 24 24 25 26 27 29 31 32 31 31 30 30 31 31 29 26 25 26 26 25 24 24 25 28 30 32 32 31 31 32 34 35 36 39 40 39 36 31 31 34 35 34 33 34 33 30 29 29 29 27 26
30 30 29 28 27 27 27 27 26 26 26 25 25 26 28 29 30 30 31 31 30 30 28 28 29 29 28 26 24 24 24 24 24 25 25 25 25 25 26 27 28 29 30 32 32 33 32 30 33 34 31 27 25 26 28 28 27 25 25 27 29 33 35 33 32 34 35 37 39 38 39 41 42 40 36 33 33 35 34 33 32 28 26 28 29 29 26 23
31 30 30 29 29 28 28 29 27 26 27 27 26 26 27 28 30 31 32 32 31 31 31 31 32 33 31 29 28 27 27 27 28 27 27 27 27 28 29 29 30 30 31 31 33 33 32 33 35 32 28 26 26 27 28 28 27 26 27 28 31 35 36 33 32 35 36 36 40 40 42 47 45 43 41 37 36 35 31 28 27 25 26 30 29 26 24 22
31 31 30 30 29 29 30 30 29 27 27 27 27 28 28 28 29 31 33 35 33 32 32 33 33 33 32 30 30 30 31 32 31 30 30 30 29 30 31 31 31 32 31 32 33 32 32 34 32 28 26 27 27 28 29 30 29 27 27 30 34 35 35 34 33 35 36 37 42 43 46 51 48 45 44 41 36 26 21 23 26 28 27 27 26 25 25 21
34 32 31 30 30 30 31 31 30 29 28 28 29 29 29 29 30 31 33 37 37 34 33 34 34 33 32 32 32 33 35 35 34 33 32 33 32 33 33 33 33 32 32 33 33 32 30 29 27 24 24 25 26 28 28 30 31 29 30 32 35 34 32 34 34 35 35 37 41 43 50 56 50 45 41 35 26 13 16 27 25 24 25 24 25 26 25 20
37 35 33 32 31 31 32 32 31 30 29 29 29 29 30 30 31 32 34 39 42 39 36 35 34 34 33 33 34 35 36 37 36 35 34 35 35 34 35 33 32 32 31 30 30 30 28 27 27 26 25 25 24 26 27 30 32 32 33 33 35 33 30 34 35 34 35 37 38 39 48 53 37 25 25 28 25 14 18 28 21 21 25 25 26 26 23 21
37 36 36 35 34 34 33 33 32 31 30 30 30 30 31 31 32 33 35 40 44 43 39 38 36 34 34 34 34 35 36 37 36 35 35 35 35 35 34 32 31 31 28 27 28 29 27 26 28 29 28 29 28 28 29 31 34 35 34 33 33 31 31 33 33 33 33 29 28 28 31 28 11 4 17 32 38 31 26 26 20 21 25 24 27 26 23 23
35 35 36 35 36 36 36 36 34 32 32 32 32 32 32 33 33 34 35 39 44 43 38 36 34 32 32 32 31 30 33 34 32 32 32 32 32 32 32 30 29 27 25 25 26 28 27 25 28 29 29 29 30 31 31 32 34 34 34 33 31 32 32 32 32 32 27 21 23 24 21 22 19 23 36 42 43 39 31 26 19 18 23 25 26 24 23 26
35 35 35 35 35 35 36 36 35 34 34 33 33 33 33 33 33 34 32 28 30 31 26 25 27 27 27 25 25 25 26 27 25 24 24 24 26 26 27 27 25 24 25 25 25 26 27 27 27 28 28 28 29 31 30 30 32 33 34 32 30 33 33 33 33 31 31 30 29 30 28 30 35 40 44 42 37 35 34 28 18 17 24 24 22 22 25 28
35 34 35 34 34 35 36 35 35 34 34 34 34 33 32 32 32 32 24 12 11 13 11 13 16 17 19 18 19 20 21 22 21 20 20 20 22 23 24 25 24 26 27 27 29 29 29 30 29 28 28 29 29 30 29 28 30 32 34 32 32 34 32 34 33 31 36 32 25 32 30 23 31 39 36 34 34 34 34 27 21 24 24 19 18 23 28 28
36 36 35 35 34 35 35 35 35 34 33 34 33 32 31 30 30 27 18 9 8 11 12 13 15 17 19 21 22 22 22 23 23 24 24 24 25 25 26 25 26 28 28 31 33 32 32 33 31 31 31 31 30 30 30 29 31 33 35 33 32 33 32 32 32 32 33 23 20 37 32 16 24 36 30 31 34 32 30 29 31 28 18 15 21 28 28 25
39 38 37 36 36 34 34 34 34 33 33 33 32 32 30 29 28 20 13 12 11 13 15 15 18 22 24 26 27 26 27 27 26 27 26 27 28 29 29 28 28 30 30 32 34 34 35 36 35 34 33 34 33 33 34 33 34 36 35 34 33 32 31 29 30 28 21 13 21 36 33 21 17 22 25 30 32 32 34 34 30 19 13 20 30 29 25 23
41 40 39 39 37 36 35 35 34 33 32 32 32 31 30 29 26 16 11 17 19 19 21 20 21 25 26 27 28 28 28 29 28 28 28 29 30 31 31 30 29 30 32 35 36 35 36 37 38 38 36 35 36 36 36 36 37 37 34 32 29 23 20 18 17 13 6 8 20 27 23 20 19 23 32 35 37 41 38 28 18 15 20 30 31 25 23 24
42 41 41 40 39 38 37 36 36 34 33 33 30 31 30 25 26 29 23 18 14 12 17 21 24 25 23 25 28 27 28 29 28 28 29 30 32 35 33 31 31 28 29 34 35 34 38 39 38 36 36 37 37 37 38 38 39 38 35 30 19 9 8 7 3 3 6 11 22 24 16 18 34 47 48 42 43 39 28 22 22 27 31 30 24 22 24 27
43 43 43 41 40 39 38 37 37 35 35 35 31 33 29 18 25 39 35 25 16 11 13 15 17 19 19 24 28 28 29 30 30 29 30 32 36 38 35 35 36 32 31 33 30 27 31 36 37 36 35 35 36 37 36 37 36 34 31 25 14 3 2 4 4 3 8 14 23 23 15 19 36 49 43 35 38 29 21 32 38 36 31 24 23 25 28 30
43 45 44 44 41 38 38 37 36 36 35 34 34 32 28 26 32 35 32 33 32 27 26 23 21 22 25 30 32 31 31 31 31 31 33 35 38 40 40 39 39 38 38 37 32 27 23 27 33 31 29 31 31 29 29 30 31 31 28 21 18 14 8 6 5 4 7 15 21 13 9 17 28 38 38 36 46 40 33 41 40 30 26 25 28 29 30 34
43 44 45 45 42 38 37 36 36 35 33 34 35 33 35 42 44 38 36 40 37 35 37 35 34 34 35 37 36 35 33 32 34 34 35 39 41 43 44 42 39 40 40 35 32 30 27 33 39 34 31 32 28 27 28 27 26 28 26 23 25 27 24 15 11 15 11 12 18 15 19 38 48 55 56 50 54 48 36 36 31 25 28 30 31 31 33 37
43 44 44 45 44 39 37 36 35 34 33 33 34 39 50 55 51 47 46 42 38 39 39 37 38 38 39 41 40 38 36 35 37 37 37 41 43 47 48 45 42 42 42 39 36 30 26 31 38 33 30 29 26 29 33 31 27 25 26 31 32 30 27 19 14 20 12 6 19 22 27 51 59 54 52 46 45 41 34 35 32 28 33 34 34 36 39 39
46 45 45 46 43 39 39 39 36 33 33 34 37 47 58 59 55 54 52 47 42 38 34 34 37 37 36 38 39 39 36 37 40 40 40 40 41 47 49 46 45 44 43 42 41 37 30 32 37 34 29 28 31 34 35 36 32 29 31 33 29 22 21 18 7 7 5 3 16 25 32 49 47 36 41 45 45 46 42 39 35 32 35 38 41 43 43 41
47 47 48 48 45 42 42 40 36 34 32 33 43 53 57 56 56 54 51 49 45 38 35 38 39 37 36 37 38 36 32 35 40 40 41 41 41 47 47 42 43 41 39 39 40 40 36 33 38 42 36 33 37 36 34 36 36 37 39 34 26 16 13 17 11 4 6 3 6 25 38 48 48 43 50 55 52 51 46 39 37 37 40 45 47 47 45 43
47 49 51 50 46 45 44 40 36 34 32 37 46 54 56 56 56 53 50 49 45 40 41 42 40 38 38 39 38 34 32 35 39 39 40 40 41 46 44 39 39 36 33 34 37 41 40 31 30 39 38 34 37 38 39 42 41 40 39 35 32 24 16 20 18 9 7 4 5 18 23 39 56 54 53 55 51 49 46 43 44 45 49 53 51 49 47 44
48 51 53 51 47 46 44 41 38 37 39 46 52 55 57 57 56 55 54 52 50 46 45 45 43 40 42 43 40 39 37 37 39 40 40 41 43 45 44 41 39 37 34 31 31 36 40 35 30 35 37 35 39 44 46 49 46 43 42 38 37 33 25 21 21 21 15 4 4 6 9 40 67 56 50 55 53 56 57 53 53 53 56 57 52 50 48 47
48 50 54 54 50 49 46 43 42 42 46 52 56 57 58 56 56 56 55 53 52 49 48 47 46 45 46 46 45 45 42 41 42 42 42 46 47 46 45 43 40 38 35 32 31 33 37 39 37 39 41 42 47 52 51 47 44 42 42 42 41 39 32 17 13 27 30 18 15 7 6 45 76 63 60 67 63 66 68 61 60 59 57 56 52 51 52 53
49 52 56 55 52 51 49 47 47 48 51 55 57 57 55 55 56 56 54 53 51 50 49 49 50 50 50 50 49 48 44 44 46 46 46 48 49 48 47 46 43 40 35 31 30 31 34 36 36 40 43 45 49 51 47 41 37 34 35 38 38 39 39 27 16 25 30 29 31 14 3 44 81 76 71 75 70 70 70 65 63 59 57 56 55 57 58 57
51 54 56 55 54 53 50 47 46 49 53 56 55 54 53 54 55 55 54 54 52 51 50 51 53 52 51 51 50 49 48 46 49 50 48 48 51 52 50 48 47 43 37 33 30 28 29 31 32 35 40 45 51 53 47 38 32 30 34 38 37 40 46 42 38 35 27 26 28 7 2 45 82 79 72 74 70 68 67 63 60 60 61 62 62 62 60 59
51 53 56 57 56 55 54 53 53 55 55 54 53 52 52 53 53 55 56 55 54 54 54 55 55 52 52 51 50 51 50 46 46 49 47 48 53 53 50 48 48 46 43 40 36 31 29 31 30 24 22 29 37 37 33 31 31 34 41 42 40 44 44 43 47 39 27 32 31 9 9 53 79 76 71 71 68 69 68 63 63 65 67 66 65 63 62 61
52 53 55 57 57 58 60 60 59 59 57 55 55 54 53 54 53 53 55 56 56 56 56 55 54 53 53 51 50 52 52 49 47 46 45 49 52 52 50 47 46 46 44 41 39 36 32 33 34 26 15 14 20 22 22 26 29 35 42 43 42 45 45 45 47 36 26 32 31 20 32 66 78 73 71 72 70 72 71 67 67 69 68 68 67 65 64 63
53 55 54 54 54 56 60 61 58 58 58 55 54 54 54 56 56 54 54 56 57 58 57 56 56 54 53 52 52 54 57 56 52 50 52 54 53 52 50 47 44 42 39 38 38 37 36 37 41 41 37 34 38 41 40 37 34 37 41 42 41 43 45 47 47 44 36 26 26 43 61 68 70 73 76 77 74 71 71 70 68 69 69 70 68 65 64 62
54 57 57 55 50 48 54 60 59 59 59 56 55 56 56 56 56 55 56 57 57 57 56 56 57 56 56 56 57 59 60 57 52 55 60 60 56 52 48 44 41 38 36 34 33 35 38 40 43 48 50 50 53 55 54 50 48 48 47 46 47 47 44 47 51 55 47 26 28 60 69 56 61 76 81 81 76 71 70 70 69 71 72 71 68 65 62 59
56 58 60 60 55 50 53 59 60 59 59 57 57 57 56 56 55 56 56 56 56 55 54 55 59 59 60 61 59 58 55 49 49 56 61 59 56 53 50 47 44 42 39 35 33 36 39 43 47 50 50 53 55 57 58 56 54 54 51 52 58 56 50 52 59 63 56 43 47 65 63 52 64 80 82 81 77 71 70 72 73 74 73 70 67 64 61 58
59 59 59 60 62 62 62 62 59 56 55 56 58 58 57 57 58 57 56 55 56 56 55 58 61 60 61 62 60 58 53 47 50 57 58 54 50 49 49 48 46 45 42 40 39 38 40 45 47 47 48 50 53 56 56 54 53 56 57 58 63 64 59 58 65 70 66 60 62 64 58 59 74 84 83 80 77 73 73 75 75 72 70 68 66 64 63 58
60 61 61 61 62 63 63 61 57 54 54 54 56 57 56 58 59 58 57 58 59 59 59 60 60 59 59 58 56 57 57 55 56 57 55 51 47 46 47 46 46 44 41 41 40 38 41 44 43 43 43 44 51 55 51 48 51 52 54 59 66 67 63 63 70 73 66 60 60 57 54 65 81 86 80 77 76 75 74 74 72 70 68 67 65 63 60 55
56 58 59 61 64 65 65 64 61 58 57 57 58 59 59 60 61 61 60 61 60 59 59 59 59 57 56 54 54 56 57 55 55 54 53 52 50 49 49 48 46 42 38 39 39 38 40 41 41 40 36 41 53 52 45 45 45 43 50 62 69 67 64 69 73 67 59 58 58 54 55 70 84 83 75 74 74 73 72 73 72 69 68 67 65 61 54 50
52 53 54 57 64 67 66 67 65 62 62 63 64 65 64 63 63 61 60 60 59 58 58 58 57 55 55 55 55 54 51 50 51 50 48 50 52 52 51 50 47 43 40 40 38 38 39 39 40 37 32 40 51 48 44 39 26 29 50 64 65 65 68 73 73 65 58 58 58 59 67 78 82 78 72 72 71 70 72 73 71 69 69 68 63 54 48 48
Wind_Direction
286 292 296 300 303 305 307 310 313 315 318 321 325 328 330 330 330 332 332 332 333 334 337 343 347 351 356 359 3 7 10 12 14 16 18 22 20 16 17 16 17 18 15 13 11 6 1 359 354 344 339 334 329 321 317 310 301 298 292 288 286 287 289 289 290 288 289 292 293 293 289 287 287 287 290 290 293 298 298 300 305 309 310 310 306 301 300 298
280 285 289 294 297 300 304 306 308 312 314 316 318 320 323 324 325 325 325 326 325 325 327 329 333 339 341 344 348 350 355 357 358 4 10 13 12 11 12 11 12 11 9 8 8 5 356 356 359 356 350 342 336 326 318 311 302 299 293 290 289 289 291 291 291 290 291 293 293 292 289 289 288 287 288 290 294 296 297 304 308 306 307 304 299 297 296 295
275 278 282 286 291 295 298 301 305 308 311 313 314 315 318 319 319 319 319 318 317 316 316 318 320 323 327 330 332 334 337 338 339 348 355 358 0 3 5 5 5 4 3 360 1 359 353 353 355 354 353 348 342 332 324 318 309 303 296 293 293 293 294 293 292 292 294 294 293 292 291 291 290 288 287 292 294 292 299 307 303 300 301 297 294 293 291 290
268 271 275 279 284 288 292 297 301 304 307 310 311 312 313 313 314 314 313 311 309 308 307 308 308 310 314 316 319 321 322 323 325 335 339 339 341 344 349 354 355 356 356 351 351 349 345 350 352 348 346 346 343 336 329 323 314 306 300 298 298 298 296 294 295 294 294 294 294 294 292 293 291 287 289 292 290 293 305 302 293 293 293 291 291 289 288 288
262 265 268 272 276 281 287 291 296 300 302 304 306 308 308 310 312 311 310 307 304 302 300 299 299 300 301 303 306 308 312 315 314 320 323 321 322 323 327 332 336 340 341 344 346 341 339 344 344 340 338 338 337 333 327 322 315 308 306 304 302 302 299 296 295 294 293 292 292 292 292 293 290 289 291 288 289 302 306 292 287 289 288 288 289 288 289 290
260 262 264 266 270 275 280 285 291 294 297 299 300 302 303 305 307 309 308 305 302 300 297 295 293 293 293 295 296 298 301 304 304 308 310 308 308 310 311 313 317 321 323 329 332 333 338 340 335 331 328 323 322 323 317 314 311 309 310 307 304 303 300 297 295 294 292 289 289 289 290 292 291 291 290 290 303 312 299 288 288 289 289 288 287 288 290 289
259 261 262 264 266 269 273 279 284 288 292 293 295 296 298 300 302 305 305 304 303 300 298 294 291 289 289 289 290 291 293 294 296 298 298 298 299 301 302 303 305 308 312 315 317 322 329 332 331 326 318 311 310 312 308 305 303 305 308 306 303 301 299 297 295 294 291 288 289 288 290 293 292 292 293 302 321 308 293 290 288 287 288 286 287 289 289 287
258 259 261 263 264 266 268 272 277 282 286 288 291 292 293 295 297 300 300 300 300 300 299 296 293 289 287 287 287 288 289 289 290 291 291 291 293 295 297 299 300 301 305 308 310 312 313 318 323 322 318 311 306 304 303 303 298 296 299 302 301 299 299 296 294 292 290 290 289 287 289 290 289 292 300 311 307 290 288 289 285 285 285 286 290 291 289 289
259 259 260 261 263 264 266 268 271 275 280 284 288 289 290 291 293 296 295 294 295 296 296 296 295 291 288 287 286 287 288 288 289 288 287 288 289 291 293 296 298 297 299 303 306 305 304 305 309 314 318 315 308 303 302 302 299 292 292 296 296 296 296 294 292 290 290 292 290 287 286 284 285 290 299 301 288 286 289 290 290 289 288 289 290 289 289 288
259 260 260 260 261 263 265 266 267 270 274 279 284 287 288 288 289 290 289 289 289 290 291 293 293 292 291 289 289 289 287 288 288 288 287 288 288 290 292 294 296 296 297 300 303 304 302 301 301 303 308 311 309 306 303 301 299 293 290 292 292 291 292 291 289 287 289 290 289 289 285 282 284 286 286 291 292 292 293 295 297 295 294 293 290 289 287 285
260 260 260 261 261 262 263 264 265 267 269 274 278 282 284 286 287 286 286 286 285 285 287 288 289 290 290 291 292 291 289 290 289 288 289 289 290 290 291 293 294 295 296 299 303 304 301 299 297 298 301 304 306 307 304 299 297 295 294 294 291 289 288 287 287 285 285 285 286 289 286 282 282 285 284 288 292 293 293 297 300 300 299 296 295 293 290 289
260 261 261 262 262 262 263 263 265 266 267 269 272 277 280 282 284 284 283 283 282 282 282 284 285 285 286 288 291 290 290 291 290 290 291 292 292 291 291 292 292 293 296 300 302 303 301 299 296 294 295 296 301 306 303 298 298 298 298 297 293 289 287 285 285 284 282 282 285 288 288 284 282 288 289 287 292 293 292 297 300 301 302 301 299 297 294 293
260 261 262 262 262 262 262 263 264 265 266 268 269 272 274 275 280 282 280 281 280 279 280 280 280 280 281 283 286 287 289 290 290 292 292 291 291 291 291 291 291 292 295 298 300 300 299 297 295 292 290 290 294 297 298 298 298 299 300 298 295 291 289 287 284 282 283 284 286 285 286 290 295 295 288 286 291 292 292 295 298 301 304 305 304 301 299 296
259 260 261 262 262 262 263 263 263 264 265 267 269 270 272 272 274 277 278 278 278 278 278 277 277 277 277 279 281 282 286 288 289 290 290 290 289 288 289 290 291 292 294 296 296 296 295 295 293 290 288 288 288 290 294 296 297 299 299 298 298 296 294 292 289 287 287 287 286 279 278 292 305 298 288 289 291 291 293 295 297 301 304 306 306 303 302 301
259 260 261 262 262 263 263 264 264 264 264 266 268 270 271 271 272 275 276 277 278 278 277 276 276 276 275 276 277 278 281 283 285 286 286 287 286 286 287 288 290 291 293 293 292 292 291 291 289 287 286 285 284 285 288 291 294 297 296 297 299 298 297 296 294 291 290 288 284 277 275 288 303 302 295 294 292 292 294 295 298 302 303 305 305 301 300 301
260 261 262 263 264 264 264 265 265 265 265 266 267 269 271 271 271 273 274 276 277 278 278 277 277 276 275 274 273 275 278 279 280 279 281 283 284 285 286 287 288 289 290 289 289 288 286 286 285 284 283 282 281 280 283 286 289 293 293 296 298 298 298 297 297 294 293 290 285 281 277 285 297 303 300 296 293 293 295 297 300 301 302 305 302 296 295 298
261 262 263 264 265 266 267 268 268 267 267 268 268 269 271 272 272 272 273 275 276 277 277 278 278 276 275 274 271 272 274 274 274 274 278 281 282 283 285 286 287 287 287 288 287 285 284 282 280 280 279 277 276 275 279 282 285 291 294 296 297 298 298 297 298 297 295 292 289 285 280 285 295 301 299 296 294 293 296 300 300 300 304 304 298 291 292 295
261 262 263 264 266 268 269 270 271 272 271 271 271 270 271 272 272 272 272 273 274 275 276 277 277 274 273 272 268 268 269 270 271 275 278 279 280 282 283 284 284 286 287 286 286 284 283 280 279 276 272 271 272 271 272 276 283 289 293 295 296 298 298 298 299 297 296 294 291 286 283 287 293 295 296 296 295 294 297 299 299 301 304 300 292 288 289 293
261 262 262 264 266 268 270 271 272 274 274 274 274 274 273 273 273 272 272 272 272 273 274 275 272 269 269 270 270 271 271 272 273 274 275 277 278 280 281 281 282 284 284 284 284 284 281 279 277 273 272 274 273 269 268 273 281 286 290 292 294 298 298 301 301 297 296 294 291 289 287 288 290 291 293 293 293 293 295 298 299 301 300 292 288 285 286 293
262 262 262 263 265 267 269 270 271 274 275 276 277 277 277 277 277 275 273 272 273 273 272 271 271 270 270 272 273 273 272 272 271 272 273 275 276 277 277 278 280 281 282 284 283 283 281 276 275 276 279 278 270 266 269 273 278 282 287 288 292 295 297 302 302 297 297 295 293 294 291 289 290 292 294 291 288 290 294 297 298 299 294 289 287 284 287 291
263 263 263 263 264 265 267 269 271 273 275 277 278 278 278 278 279 278 276 272 271 272 271 270 270 270 271 273 272 272 273 272 271 272 274 274 274 274 275 277 278 280 282 283 280 280 277 274 278 283 282 273 266 266 268 271 276 280 284 288 290 292 296 302 301 296 297 295 295 297 293 291 292 294 295 291 287 290 294 293 297 299 293 291 288 284 288 287
262 263 263 263 263 264 266 268 270 272 275 277 278 278 279 279 280 282 281 277 271 269 270 270 270 271 272 273 273 272 272 271 271 272 273 274 274 274 275 277 278 280 281 279 276 275 274 276 283 284 276 269 265 265 267 270 274 277 282 287 289 291 297 301 299 297 297 296 297 299 295 293 294 295 295 293 290 290 293 295 301 302 294 290 287 284 284 281
261 261 262 263 263 264 265 267 269 271 272 274 276 278 279 281 282 283 284 283 278 272 270 269 270 271 271 271 271 271 270 271 271 271 272 273 274 274 276 277 278 278 278 275 273 271 271 277 282 279 272 268 265 264 265 268 270 275 282 285 287 292 298 298 298 298 296 296 298 299 297 295 296 296 294 297 295 276 294 306 304 300 296 289 283 281 279 278
262 261 261 262 262 263 264 266 267 269 270 272 274 275 278 280 282 283 285 285 282 277 273 272 271 270 270 269 268 267 268 270 270 271 272 272 273 274 274 276 275 275 274 273 271 268 269 274 276 273 271 269 264 262 264 267 272 277 281 282 285 291 296 296 297 296 295 296 297 302 302 298 299 300 296 301 300 276 291 307 304 297 299 292 286 284 278 282
262 262 262 262 262 262 263 265 266 267 268 269 271 273 276 278 280 283 286 287 284 281 277 277 276 273 270 267 266 267 268 268 270 271 271 270 271 271 272 272 271 272 271 268 267 267 270 272 272 272 270 267 265 265 268 270 274 277 278 281 285 290 295 296 296 295 296 295 296 309 311 301 295 287 289 296 298 292 293 303 304 300 299 295 294 290 280 288
263 263 262 262 262 262 263 264 265 266 267 267 269 271 273 276 279 281 285 286 283 282 282 280 277 272 269 266 266 268 267 268 270 269 269 269 268 268 269 268 268 268 267 266 266 266 270 271 271 270 268 267 266 268 270 271 272 274 278 281 284 290 296 296 294 293 294 287 288 300 298 284 274 272 283 291 295 296 297 302 300 299 303 299 295 287 280 295
263 264 263 263 263 263 263 263 264 264 266 267 268 270 271 274 276 279 286 288 283 284 284 275 270 268 268 267 267 264 262 268 272 270 269 268 266 265 264 264 265 264 265 265 260 264 274 276 273 271 268 265 265 269 272 271 270 271 277 282 284 291 296 294 292 291 289 286 287 291 284 277 278 278 287 293 292 295 300 303 298 299 306 298 287 281 284 298
262 263 263 263 263 263 263 264 264 264 265 267 267 270 271 273 275 277 281 282 278 287 282 258 257 264 267 266 265 261 262 270 271 269 270 267 265 262 261 264 265 264 265 261 258 267 277 274 272 270 266 266 267 270 271 268 266 270 277 282 285 291 292 291 291 288 290 291 288 288 281 271 277 281 289 293 288 295 302 302 302 306 303 288 281 285 290 297
262 262 262 262 262 263 264 264 264 264 264 265 267 269 270 273 276 275 269 253 256 270 261 245 248 261 268 269 267 265 266 269 267 268 271 268 266 264 262 264 264 263 263 261 263 269 272 270 270 266 263 267 270 270 268 265 266 271 277 282 286 289 288 288 288 285 288 287 277 284 278 253 276 282 281 284 286 293 300 303 307 305 289 278 291 294 294 295
262 261 261 261 261 261 262 262 263 263 263 264 265 267 268 271 270 262 248 242 250 259 252 244 249 259 265 267 268 269 267 266 265 266 266 263 264 264 263 263 262 263 263 264 266 269 269 269 266 264 264 268 269 269 269 268 270 273 276 281 285 287 287 286 284 283 289 276 272 284 276 250 268 281 275 282 288 293 298 304 305 291 267 291 302 298 293 291
262 261 261 260 260 261 261 261 261 261 262 261 262 263 265 266 260 241 234 251 257 258 252 248 253 259 264 267 268 268 265 264 263 262 262 261 260 259 259 260 259 260 260 260 264 268 268 266 265 266 267 269 270 270 270 271 271 273 275 278 284 288 291 288 279 273 270 267 280 287 276 245 237 262 277 283 288 292 297 303 295 274 286 302 302 293 290 293
262 262 261 260 260 260 260 260 261 260 260 259 259 259 258 259 249 236 235 249 258 258 250 250 256 258 262 264 264 264 261 261 261 261 261 259 258 257 257 259 257 255 256 259 264 267 267 267 267 267 267 267 268 267 268 269 269 269 270 271 276 293 307 290 255 238 235 260 280 282 277 246 246 265 277 280 286 291 294 299 292 290 298 302 294 289 293 298
262 262 262 260 260 259 259 260 259 258 257 255 255 254 250 245 246 242 238 238 241 250 254 253 255 255 255 255 259 262 260 261 263 261 259 257 255 255 254 254 253 250 253 259 262 263 267 269 265 263 266 266 265 265 266 268 269 269 267 263 252 205 28 281 246 282 264 268 278 273 272 265 264 277 283 282 291 293 287 295 296 296 300 298 292 294 300 304
262 261 261 261 260 260 259 259 258 256 255 252 249 247 237 233 246 249 244 245 249 254 258 258 257 257 256 256 258 260 259 262 263 259 257 255 253 254 253 251 250 249 251 253 255 256 260 266 265 262 263 264 266 267 269 269 268 267 265 257 244 228 219 241 246 263 278 291 287 263 242 261 271 284 285 287 295 290 285 294 296 293 295 296 294 297 304 308
262 261 261 260 259 259 259 258 257 256 252 248 243 237 230 236 245 249 251 253 253 254 257 259 260 258 258 257 256 257 258 258 260 257 255 254 255 259 259 255 252 249 247 244 248 251 249 258 264 261 259 263 268 271 272 267 257 258 256 244 242 245 241 240 254 263 278 311 289 250 245 266 276 283 282 287 292 287 287 294 290 289 294 296 295 298 307 311
264 262 261 260 258 257 257 256 255 254 251 245 235 231 237 244 248 251 255 258 257 258 258 257 257 255 254 256 255 255 255 254 256 256 254 256 258 260 260 259 257 252 248 245 245 247 245 257 265 263 260 263 268 272 271 262 251 250 249 243 248 253 246 236 251 267 272 299 275 263 266 276 283 287 284 288 291 287 290 292 288 291 295 296 299 303 309 311
267 266 264 263 260 258 256 254 251 249 248 241 232 238 247 250 252 253 257 258 258 259 257 252 254 253 252 255 257 257 253 250 252 252 252 255 259 261 262 262 260 256 256 254 248 248 249 256 264 265 263 263 265 266 261 254 249 244 246 251 254 251 240 232 234 278 267 242 270 270 274 280 282 283 284 288 290 290 293 292 290 292 294 298 302 306 310 310
271 270 266 263 262 260 258 255 251 249 247 238 238 247 252 252 253 254 254 256 256 257 254 251 254 256 255 257 259 259 252 247 248 249 251 253 258 264 264 263 263 263 263 256 247 247 248 251 260 262 260 262 262 257 248 247 246 242 247 251 246 234 220 216 206 238 254 189 274 274 276 278 273 269 279 285 288 293 295 292 290 291 295 300 303 306 309 309
270 270 267 263 263 262 260 257 251 247 243 239 242 250 253 253 255 255 254 255 255 255 254 254 255 255 257 258 259 259 255 251 252 252 252 253 257 263 265 265 266 268 267 256 247 248 245 241 252 256 257 258 254 247 243 245 242 237 240 241 238 235 223 219 213 213 234 187 257 276 280 278 273 273 281 286 289 293 293 291 290 292 297 301 304 306 307 307
265 266 267 267 264 263 263 259 250 243 241 243 247 250 253 256 258 259 260 259 257 255 254 255 254 252 255 258 258 259 257 256 256 253 251 254 257 263 267 268 268 269 269 259 247 244 239 234 243 251 253 251 248 251 254 253 248 238 234 232 233 231 223 229 234 229 230 203 241 266 266 272 276 281 284 285 288 290 290 290 289 291 297 300 303 305 304 306
263 261 263 266 263 262 262 256 251 246 242 245 249 250 253 256 258 259 262 261 259 257 256 256 256 254 256 257 257 258 257 255 256 254 252 255 257 261 266 269 270 269 266 255 245 241 234 231 236 242 246 251 257 262 260 255 252 249 246 245 247 242 228 224 244 239 234 224 229 225 237 268 275 280 282 283 287 288 290 290 288 291 297 300 302 303 303 305
264 261 262 264 262 261 259 255 256 253 247 248 252 253 255 257 257 257 259 260 259 258 258 258 258 257 257 257 257 257 255 254 256 254 253 256 259 263 268 271 270 267 264 257 253 251 240 233 233 237 247 258 264 264 258 254 253 252 251 250 251 249 236 223 229 241 236 229 236 238 227 268 275 279 280 283 285 288 289 288 288 293 298 300 301 302 302 304
262 262 264 264 263 262 257 253 254 251 250 254 256 256 255 256 257 258 258 259 258 257 257 258 259 257 256 257 256 255 254 254 254 255 255 258 263 266 267 267 266 263 260 255 253 250 237 228 231 239 249 256 258 259 259 260 255 249 251 248 244 247 244 238 238 244 243 232 231 214 198 266 276 280 279 282 285 288 289 288 290 295 297 299 301 300 302 303
263 263 264 264 262 258 253 251 252 250 252 256 256 255 254 252 255 257 258 258 258 259 258 258 258 257 257 257 256 255 255 253 254 257 257 260 264 266 265 263 262 260 258 256 255 251 239 230 229 235 250 255 254 257 257 254 252 252 257 255 250 251 249 243 240 241 248 244 231 182 230 261 272 278 277 282 286 286 287 286 290 295 297 298 299 299 300 301
262 258 257 257 253 250 250 254 255 254 256 257 256 257 256 254 255 258 259 259 260 260 259 257 258 258 258 258 256 255 254 252 254 257 258 259 261 264 264 262 262 260 258 258 257 253 248 241 234 227 227 241 247 250 250 251 256 258 259 259 259 257 250 243 241 236 240 244 230 214 245 260 270 276 277 280 283 283 284 285 289 293 296 296 297 298 300 302
261 252 248 247 242 241 248 254 254 252 254 255 254 255 255 254 256 257 256 256 257 258 257 257 258 257 256 256 255 256 256 254 253 253 255 258 258 261 262 261 260 259 257 256 254 251 248 245 242 238 236 241 248 255 259 262 263 261 263 266 266 264 257 248 242 238 237 237 232 241 252 260 269 276 278 280 280 280 282 285 289 292 293 295 297 300 302 304
260 251 250 249 240 233 241 249 248 247 250 250 249 251 253 253 254 254 254 254 256 257 256 257 257 254 254 255 254 256 257 255 251 251 256 258 257 257 259 258 258 258 258 257 251 246 242 241 244 245 244 248 253 258 263 264 264 263 266 268 267 268 263 248 243 246 244 232 241 253 256 259 267 275 279 282 282 281 283 286 289 290 292 295 298 301 303 303
258 255 257 257 250 242 244 251 253 252 251 249 249 251 251 251 252 254 256 258 257 255 253 254 256 256 257 258 254 252 253 251 247 250 256 257 254 253 254 256 257 257 259 258 252 247 243 242 247 248 247 250 254 257 259 259 261 263 264 267 267 267 263 254 255 258 251 238 246 259 262 262 268 274 278 281 282 282 283 287 289 291 294 296 299 300 301 301
257 257 258 256 253 252 255 260 261 259 258 255 251 250 252 254 256 257 258 258 257 258 256 255 259 262 263 261 254 246 245 247 249 254 258 256 253 252 254 256 257 257 260 259 254 248 243 244 249 250 250 252 253 256 256 255 258 261 262 265 267 266 263 261 263 266 260 251 254 261 263 264 269 274 276 280 282 281 282 287 291 293 295 296 297 298 298 299
254 256 258 259 257 257 257 257 255 254 257 254 249 249 254 256 258 259 258 257 258 260 260 259 264 267 263 258 251 247 251 257 259 262 262 257 253 255 256 258 259 260 262 260 252 245 241 245 249 251 254 256 255 256 258 259 261 262 263 265 266 265 263 262 263 264 262 260 261 262 260 263 271 276 276 279 282 281 283 289 292 293 295 296 297 297 298 297
252 255 259 262 262 261 261 260 256 251 250 248 247 252 256 257 261 263 260 257 258 260 260 263 270 271 263 256 253 257 265 269 268 271 270 262 258 261 262 262 262 261 258 254 249 242 239 242 245 250 257 260 258 260 264 265 264 263 261 262 262 262 262 261 261 261 261 263 266 264 259 263 274 280 279 280 283 284 287 291 293 295 297 296 296 297 295 292
251 253 256 258 258 259 260 261 258 251 248 251 255 258 260 263 268 266 258 256 260 263 264 266 269 268 262 259 263 269 276 279 277 279 276 266 261 263 262 261 260 257 251 246 242 238 235 237 245 249 252 256 260 262 263 262 260 255 254 257 260 261 262 263 264 263 263 264 265 264 265 270 278 281 280 280 282 284 288 292 295 295 295 295 295 294 290 287
Height
3203 3203 3203 3203 3203 3203 3203 3203 3202 3202 3202 3202 3201 3201 3200 3200 3200 3199 3199 3199 3198 3198 3197 3197 3196 3195 3195 3194 3194 3193 3193 3192 3191 3191 3190 3189 3188 3188 3187 3187 3186 3185 3184 3184 3183 3182 3181 3181 3180 3180 3179 3178 3178 3177 3177 3177 3176 3176 3175 3175 3174 3174 3174 3173 3173 3172 3172 3172 3171 3171 3171 3171 3171 3171 3170 3169 3169 3169 3168 3168 3168 3167 3167 3167 3166 3166 3165 3165
3202 3202 3202 3202 3202 3202 3202 3202 3202 3201 3201 3201 3201 3200 3200 3200 3199 3199 3199 3198 3198 3197 3197 3196 3196 3195 3195 3194 3194 3193 3193 3192 3192 3191 3190 3190 3189 3189 3188 3187 3187 3186 3185 3184 3183 3182 3182 3181 3180 3179 3179 3178 3177 3177 3176 3176 3176 3175 3175 3174 3173 3173 3173 3172 3172 3171 3171 3171 3170 3170 3169 3169 3169 3169 3168 3168 3167 3167 3166 3166 3166 3165 3165 3165 3164 3164 3163 3163
3201 3201 3201 3201 3201 3201 3201 3201 3201 3200 3200 3200 3200 3200 3199 3199 3199 3198 3198 3198 3197 3197 3196 3196 3196 3195 3194 3194 3193 3193 3193 3192 3192 3191 3190 3190 3189 3189 3188 3188 3187 3186 3186 3185 3184 3184 3183 3181 3180 3179 3178 3178 3177 3176 3176 3175 3175 3175 3174 3173 3173 3172 3172 3171 3171 3171 3170 3170 3169 3169 3168 3168 3167 3167 3166 3166 3165 3164 3165 3165 3164 3163 3163 3163 3162 3162 3161 3161
3200 3200 3200 3200 3200 3200 3200 3199 3199 3199 3199 3199 3199 3199 3198 3198 3198 3197 3197 3197 3196 3196 3196 3195 3195 3194 3194 3193 3193 3192 3192 3192 3191 3191 3190 3190 3189 3189 3188 3188 3187 3187 3186 3186 3185 3184 3183 3182 3181 3179 3179 3178 3177 3176 3175 3175 3174 3174 3173 3173 3172 3172 3171 3170 3170 3170 3169 3169 3168 3167 3167 3166 3166 3165 3164 3164 3163 3162 3163 3163 3162 3161 3161 3160 3160 3159 3159 3159
3198 3199 3199 3199 3199 3199 3198 3198 3198 3198 3198 3198 3198 3197 3197 3197 3197 3196 3196 3195 3195 3195 3194 3194 3194 3193 3193 3192 3192 3191 3191 3191 3190 3190 3190 3189 3189 3188 3188 3187 3187 3186 3186 3185 3185 3184 3183 3182 3181 3180 3179 3178 3177 3176 3175 3174 3173 3173 3172 3172 3171 3171 3170 3169 3169 3169 3168 3168 3167 3166 3165 3165 3164 3163 3162 3162 3160 3161 3161 3160 3159 3159 3159 3158 3157 3157 3157 3156
3197 3197 3197 3197 3197 3197 3197 3197 3197 3196 3196 3196 3196 3196 3196 3196 3195 3195 3195 3194 3194 3193 3193 3193 3192 3192 3191 3191 3191 3190 3190 3189 3189 3189 3189 3188 3188 3187 3187 3186 3186 3186 3185 3185 3184 3183 3182 3181 3181 3180 3179 3178 3177 3176 3175 3174 3173 3172 3172 3171 3170 3170 3169 3168 3168 3168 3167 3167 3166 3165 3164 3164 3163 3161 3160 3159 3159 3159 3158 3157 3157 3156 3156 3155 3155 3155 3154 3154
3196 3196 3196 3196 3196 3196 3196 3196 3195 3195 3195 3194 3194 3194 3194 3194 3194 3194 3193 3193 3192 3192 3191 3191 3191 3190 3190 3190 3189 3189 3189 3188 3188 3188 3188 3187 3187 3186 3186 3185 3185 3184 3184 3184 3183 3182 3182 3181 3180 3179 3178 3177 3176 3175 3175 3174 3173 3172 3171 3170 3170 3169 3168 3167 3167 3166 3166 3165 3165 3164 3163 3162 3161 3159 3158 3157 3157 3156 3155 3155 3154 3153 3153 3152 3152 3152 3152 3151
3194 3194 3194 3194 3195 3195 3195 3194 3194 3194 3193 3193 3193 3193 3193 3192 3192 3192 3192 3191 3191 3190 3190 3190 3189 3189 3188 3188 3188 3187 3187 3187 3187 3186 3186 3186 3185 3185 3184 3184 3183 3183 3183 3182 3182 3181 3181 3180 3179 3178 3177 3176 3175 3175 3174 3173 3172 3171 3170 3169 3169 3168 3167 3167 3166 3165 3164 3163 3163 3162 3162 3161 3159 3158 3157 3156 3156 3154 3153 3152 3152 3151 3150 3150 3149 3149 3149 3148
3192 3192 3193 3193 3193 3193 3193 3193 3193 3192 3192 3192 3191 3191 3191 3191 3191 3191 3190 3190 3189 3189 3189 3188 3188 3187 3187 3187 3186 3186 3186 3185 3185 3185 3185 3184 3184 3183 3183 3182 3182 3181 3181 3181 3180 3180 3179 3179 3178 3177 3176 3175 3174 3173 3172 3172 3171 3170 3169 3168 3168 3167 3166 3166 3165 3164 3163 3162 3161 3160 3160 3159 3158 3157 3156 3155 3154 3153 3152 3151 3150 3149 3148 3148 3147 3146 3146 3145
3190 3191 3191 3191 3191 3191 3191 3191 3191 3191 3191 3190 3190 3190 3190 3189 3189 3189 3188 3188 3188 3187 3187 3187 3186 3186 3186 3185 3185 3185 3184 3184 3183 3183 3183 3183 3182 3182 3181 3181 3180 3180 3179 3179 3178 3178 3178 3177 3177 3176 3175 3174 3173 3172 3171 3170 3169 3169 3168 3167 3166 3165 3165 3164 3163 3162 3161 3160 3159 3158 3158 3157 3156 3155 3154 3153 3152 3151 3150 3149 3148 3147 3146 3145 3144 3144 3143 3142
3188 3189 3189 3189 3189 3189 3189 3189 3189 3189 3189 3189 3188 3188 3188 3188 3188 3187 3187 3187 3186 3186 3185 3185 3185 3184 3184 3184 3183 3183 3183 3182 3182 3182 3181 3181 3181 3180 3180 3179 3179 3178 3177 3177 3177 3176 3176 3175 3175 3174 3173 3172 3171 3171 3170 3169 3168 3167 3166 3165 3165 3164 3163 3162 3162 3161 3159 3159 3158 3157 3155 3155 3154 3153 3152 3152 3150 3149 3148 3147 3146 3145 3144 3143 3141 3141 3139 3139
3186 3186 3187 3187 3187 3187 3187 3187 3187 3187 3187 3187 3187 3186 3186 3186 3186 3186 3185 3185 3184 3184 3184 3183 3183 3183 3182 3182 3182 3181 3181 3181 3181 3180 3180 3179 3179 3178 3178 3177 3177 3176 3176 3175 3175 3174 3174 3173 3173 3172 3172 3171 3170 3169 3168 3167 3166 3165 3164 3163 3162 3161 3161 3160 3159 3158 3157 3157 3156 3155 3152 3150 3152 3152 3151 3150 3148 3147 3145 3145 3144 3142 3141 3140 3139 3138 3136 3136
3184 3184 3184 3185 3185 3185 3185 3185 3185 3185 3185 3185 3185 3184 3184 3184 3184 3184 3183 3183 3183 3182 3182 3182 3181 3181 3181 3181 3181 3180 3180 3180 3179 3179 3178 3178 3177 3177 3176 3176 3175 3175 3174 3174 3173 3172 3172 3171 3171 3170 3170 3169 3168 3167 3166 3165 3164 3163 3162 3161 3160 3159 3158 3158 3157 3156 3155 3154 3153 3154 3149 3145 3148 3150 3149 3147 3146 3144 3143 3142 3141 3140 3139 3137 3136 3134 3133 3132
3181 3181 3182 3182 3182 3183 3183 3183 3183 3183 3183 3183 3183 3182 3182 3182 3182 3181 3181 3181 3180 3180 3180 3179 3179 3179 3179 3179 3179 3178 3178 3178 3177 3177 3177 3176 3176 3175 3175 3174 3174 3173 3172 3172 3171 3170 3170 3169 3168 3168 3168 3167 3167 3166 3165 3163 3162 3161 3160 3159 3158 3156 3155 3155 3155 3154 3153 3152 3151 3151 3146 3141 3145 3147 3146 3145 3143 3141 3139 3139 3138 3136 3135 3133 3132 3130 3129 3128
3178 3179 3179 3180 3180 3180 3180 3181 3181 3181 3181 3180 3180 3180 3179 3179 3179 3179 3179 3178 3178 3178 3177 3177 3177 3176 3176 3176 3176 3176 3176 3176 3175 3175 3175 3174 3174 3173 3173 3172 3172 3171 3170 3169 3169 3168 3167 3167 3166 3165 3165 3165 3164 3164 3163 3161 3160 3160 3158 3157 3156 3154 3153 3152 3153 3152 3151 3149 3148 3148 3143 3139 3141 3143 3143 3142 3140 3138 3136 3135 3134 3133 3131 3130 3128 3127 3125 3125
3176 3176 3177 3177 3177 3178 3178 3178 3178 3178 3178 3178 3178 3178 3177 3176 3177 3177 3176 3176 3176 3176 3175 3175 3175 3174 3174 3174 3174 3173 3174 3173 3173 3173 3173 3172 3172 3171 3171 3170 3170 3169 3168 3167 3166 3166 3165 3164 3164 3163 3162 3162 3162 3161 3161 3159 3158 3158 3156 3155 3153 3152 3151 3150 3150 3149 3148 3147 3145 3143 3139 3136 3138 3140 3139 3138 3136 3135 3132 3131 3130 3129 3128 3126 3125 3123 3122 3121
3173 3174 3174 3174 3175 3175 3175 3175 3175 3176 3176 3175 3175 3175 3174 3174 3174 3173 3174 3174 3173 3173 3173 3172 3172 3172 3171 3171 3171 3171 3171 3171 3171 3171 3170 3170 3169 3169 3168 3168 3167 3166 3165 3164 3164 3163 3162 3162 3161 3160 3160 3159 3159 3159 3158 3156 3155 3155 3154 3153 3151 3150 3149 3148 3147 3146 3145 3144 3142 3139 3134 3133 3135 3136 3135 3133 3132 3131 3129 3128 3127 3125 3124 3123 3121 3119 3118 3118
3170 3171 3171 3172 3172 3173 3173 3172 3173 3173 3173 3173 3172 3172 3172 3171 3171 3170 3170 3170 3170 3170 3170 3169 3169 3169 3168 3168 3168 3169 3169 3169 3168 3168 3168 3167 3167 3166 3166 3165 3164 3163 3163 3162 3160 3160 3159 3158 3158 3157 3156 3156 3156 3156 3155 3153 3153 3153 3152 3150 3149 3148 3146 3145 3145 3143 3141 3140 3138 3135 3130 3128 3131 3132 3132 3130 3128 3126 3125 3124 3122 3121 3121 3119 3116 3115 3115 3114
3167 3168 3168 3169 3169 3170 3169 3169 3170 3170 3170 3170 3169 3169 3169 3168 3168 3167 3167 3167 3167 3167 3167 3166 3166 3166 3166 3166 3166 3166 3166 3166 3166 3165 3165 3165 3164 3163 3163 3162 3161 3161 3160 3158 3157 3157 3156 3155 3155 3153 3152 3154 3154 3153 3152 3151 3150 3150 3149 3148 3146 3144 3143 3143 3142 3140 3138 3135 3133 3132 3127 3124 3125 3127 3129 3128 3125 3122 3121 3120 3118 3117 3117 3115 3113 3111 3111 3111
3164 3164 3165 3165 3166 3166 3166 3166 3166 3167 3167 3167 3167 3166 3165 3165 3164 3164 3163 3163 3163 3163 3163 3163 3162 3162 3162 3163 3164 3163 3163 3163 3162 3162 3162 3161 3161 3160 3159 3159 3158 3157 3156 3155 3154 3153 3153 3152 3150 3149 3150 3152 3151 3150 3150 3149 3148 3147 3147 3145 3144 3141 3139 3140 3139 3136 3135 3130 3127 3127 3123 3119 3120 3120 3123 3124 3122 3119 3118 3116 3115 3114 3113 3111 3109 3108 3108 3107
3160 3161 3162 3162 3163 3163 3163 3163 3163 3164 3164 3163 3164 3163 3162 3162 3160 3159 3159 3159 3159 3159 3159 3159 3158 3158 3159 3160 3160 3160 3160 3159 3159 3159 3159 3158 3158 3156 3155 3155 3154 3154 3153 3152 3151 3149 3149 3147 3145 3147 3148 3149 3148 3147 3147 3146 3145 3144 3144 3142 3141 3138 3136 3137 3136 3132 3131 3125 3121 3122 3118 3113 3115 3115 3116 3118 3117 3116 3114 3113 3111 3110 3109 3106 3105 3105 3104 3103
3157 3157 3158 3159 3160 3160 3160 3159 3160 3161 3160 3160 3160 3159 3159 3158 3157 3156 3154 3153 3154 3155 3155 3154 3154 3154 3155 3156 3156 3156 3155 3155 3155 3155 3155 3154 3154 3153 3152 3152 3151 3150 3150 3149 3147 3146 3145 3142 3143 3145 3145 3144 3145 3144 3144 3143 3142 3141 3141 3139 3137 3136 3133 3133 3133 3130 3127 3122 3117 3117 3111 3105 3109 3110 3109 3110 3110 3112 3111 3110 3108 3106 3105 3103 3102 3101 3100 3100
3153 3154 3155 3155 3156 3157 3156 3156 3157 3157 3157 3157 3157 3156 3155 3155 3154 3153 3150 3146 3146 3150 3150 3149 3150 3150 3151 3151 3151 3151 3150 3150 3151 3151 3152 3150 3150 3149 3148 3148 3148 3147 3147 3145 3143 3143 3141 3140 3140 3141 3141 3141 3141 3141 3141 3139 3138 3138 3138 3136 3133 3133 3132 3128 3128 3127 3125 3120 3115 3112 3104 3097 3101 3103 3103 3104 3104 3107 3108 3107 3105 3103 3101 3099 3098 3097 3096 3096
3149 3150 3151 3152 3153 3153 3153 3153 3153 3154 3154 3154 3153 3153 3152 3151 3150 3149 3147 3141 3137 3142 3145 3144 3145 3146 3146 3147 3146 3146 3145 3145 3146 3146 3148 3146 3146 3145 3144 3144 3143 3143 3143 3141 3140 3139 3138 3138 3138 3138 3138 3138 3138 3138 3138 3136 3135 3135 3134 3133 3130 3131 3130 3126 3124 3123 3121 3119 3114 3111 3099 3086 3091 3096 3097 3100 3100 3101 3104 3103 3103 3100 3098 3096 3094 3093 3092 3092
3145 3146 3147 3148 3149 3149 3149 3149 3150 3150 3150 3150 3149 3150 3149 3148 3147 3146 3144 3137 3129 3133 3138 3139 3139 3140 3141 3141 3141 3142 3140 3140 3141 3142 3142 3142 3141 3140 3140 3140 3139 3138 3139 3138 3136 3135 3136 3137 3135 3134 3135 3134 3135 3135 3135 3134 3131 3130 3130 3130 3128 3127 3127 3124 3122 3119 3117 3115 3113 3115 3103 3081 3082 3091 3092 3095 3096 3096 3098 3099 3099 3097 3094 3093 3091 3089 3089 3088
3141 3142 3143 3144 3145 3145 3145 3145 3147 3147 3147 3147 3146 3146 3146 3145 3145 3143 3142 3133 3122 3124 3132 3133 3133 3133 3134 3135 3136 3138 3135 3134 3137 3137 3137 3137 3137 3136 3136 3136 3135 3135 3135 3135 3133 3131 3132 3134 3132 3131 3131 3131 3132 3131 3131 3131 3129 3126 3126 3127 3126 3124 3123 3121 3120 3117 3114 3111 3110 3118 3113 3086 3074 3083 3088 3090 3091 3091 3093 3094 3094 3094 3092 3090 3088 3086 3085 3085
3137 3137 3138 3139 3140 3141 3141 3141 3143 3143 3143 3143 3143 3143 3143 3142 3142 3141 3140 3132 3118 3118 3125 3127 3127 3128 3129 3131 3132 3133 3131 3130 3132 3133 3133 3133 3132 3132 3132 3131 3132 3132 3132 3132 3128 3127 3129 3129 3129 3128 3128 3128 3128 3127 3128 3129 3126 3122 3122 3124 3123 3121 3120 3117 3117 3115 3111 3107 3106 3112 3115 3093 3069 3071 3080 3083 3085 3086 3087 3089 3089 3090 3088 3086 3085 3083 3082 3082
3132 3133 3134 3135 3136 3136 3137 3138 3138 3139 3140 3139 3139 3140 3139 3139 3139 3138 3140 3131 3115 3113 3119 3121 3123 3124 3126 3127 3128 3129 3128 3127 3129 3129 3129 3130 3128 3129 3128 3128 3129 3128 3128 3127 3123 3124 3126 3125 3125 3125 3124 3124 3124 3125 3125 3126 3124 3120 3119 3120 3120 3119 3117 3114 3113 3112 3108 3104 3102 3103 3111 3098 3066 3060 3074 3076 3077 3081 3082 3085 3085 3084 3084 3082 3082 3080 3079 3078
3128 3128 3129 3130 3131 3131 3132 3133 3134 3135 3136 3135 3136 3136 3136 3137 3136 3136 3137 3126 3110 3111 3116 3117 3120 3122 3123 3124 3124 3125 3125 3125 3125 3125 3126 3126 3125 3125 3124 3125 3126 3124 3124 3122 3120 3122 3122 3120 3121 3121 3121 3121 3121 3122 3122 3122 3121 3118 3117 3116 3116 3115 3113 3113 3110 3109 3107 3101 3096 3097 3103 3097 3066 3053 3068 3071 3071 3076 3077 3080 3081 3079 3079 3078 3078 3077 3075 3074
3123 3123 3124 3125 3126 3127 3128 3129 3130 3131 3131 3132 3132 3132 3133 3133 3133 3134 3128 3113 3106 3110 3112 3113 3116 3118 3119 3120 3121 3121 3122 3121 3121 3121 3122 3122 3121 3121 3121 3122 3122 3120 3120 3118 3117 3118 3117 3117 3117 3116 3117 3118 3118 3118 3117 3118 3117 3115 3115 3113 3113 3111 3109 3110 3106 3106 3106 3094 3090 3092 3093 3094 3071 3050 3058 3064 3065 3070 3072 3075 3075 3074 3075 3075 3073 3072 3070 3070
3118 3118 3119 3120 3121 3122 3123 3124 3125 3126 3127 3128 3128 3129 3130 3129 3130 3126 3111 3101 3105 3108 3107 3110 3112 3113 3115 3116 3116 3117 3117 3117 3117 3118 3117 3118 3117 3116 3116 3118 3118 3117 3115 3113 3113 3114 3113 3112 3111 3112 3114 3114 3114 3114 3114 3114 3112 3112 3112 3111 3111 3109 3107 3106 3102 3104 3103 3088 3085 3087 3086 3089 3071 3048 3052 3060 3060 3063 3067 3069 3070 3070 3071 3070 3068 3067 3066 3066
3113 3113 3114 3115 3116 3117 3118 3119 3120 3122 3123 3123 3125 3125 3126 3126 3120 3107 3097 3100 3106 3103 3102 3107 3107 3108 3112 3111 3111 3112 3112 3112 3113 3114 3113 3113 3111 3110 3112 3113 3113 3113 3110 3108 3109 3109 3107 3107 3108 3109 3110 3110 3110 3110 3110 3108 3108 3108 3108 3109 3111 3109 3108 3105 3100 3101 3097 3085 3083 3083 3083 3079 3057 3042 3051 3056 3056 3058 3061 3064 3065 3065 3066 3065 3064 3063 3062 3062
3108 3108 3109 3110 3111 3113 3114 3115 3116 3117 3117 3119 3121 3119 3123 3121 3102 3088 3092 3100 3101 3098 3100 3104 3103 3105 3107 3105 3105 3107 3108 3108 3109 3109 3109 3108 3105 3105 3107 3107 3108 3109 3106 3105 3106 3105 3103 3101 3103 3105 3105 3105 3105 3105 3105 3103 3104 3104 3104 3107 3108 3109 3110 3104 3098 3096 3090 3083 3081 3082 3082 3066 3043 3038 3045 3049 3053 3054 3056 3059 3059 3059 3061 3060 3060 3059 3058 3057
3103 3102 3103 3104 3107 3108 3109 3110 3111 3111 3112 3114 3114 3115 3118 3107 3086 3081 3090 3093 3095 3098 3099 3100 3102 3102 3102 3100 3100 3102 3104 3104 3104 3104 3104 3102 3100 3098 3099 3100 3102 3103 3103 3103 3101 3101 3100 3095 3095 3100 3100 3099 3100 3101 3102 3100 3100 3099 3100 3103 3101 3102 3104 3098 3093 3091 3085 3080 3078 3079 3075 3054 3037 3036 3037 3042 3048 3048 3050 3053 3053 3054 3056 3056 3055 3055 3054 3053
3096 3096 3097 3098 3101 3103 3103 3104 3105 3106 3107 3107 3107 3109 3103 3088 3079 3082 3085 3086 3092 3096 3095 3097 3098 3097 3096 3095 3095 3097 3100 3100 3098 3099 3097 3095 3094 3091 3091 3093 3096 3098 3099 3099 3097 3097 3096 3089 3089 3094 3094 3095 3097 3097 3098 3097 3096 3095 3096 3097 3093 3093 3095 3093 3091 3087 3086 3084 3075 3068 3059 3041 3034 3033 3032 3039 3042 3040 3045 3047 3047 3050 3050 3050 3050 3050 3050 3048
3090 3090 3091 3091 3094 3097 3097 3097 3099 3100 3100 3100 3101 3096 3084 3075 3077 3081 3080 3083 3088 3089 3091 3093 3092 3091 3090 3088 3089 3092 3095 3095 3094 3093 3091 3090 3088 3084 3083 3086 3090 3091 3091 3092 3092 3091 3090 3085 3085 3088 3088 3091 3092 3092 3094 3092 3090 3091 3090 3087 3086 3088 3090 3090 3089 3085 3088 3086 3069 3056 3047 3034 3031 3026 3023 3034 3035 3033 3039 3040 3041 3045 3044 3045 3045 3044 3044 3043
3084 3085 3085 3085 3088 3090 3089 3090 3092 3093 3093 3094 3092 3082 3073 3072 3076 3077 3077 3079 3081 3084 3088 3087 3085 3085 3084 3082 3083 3086 3089 3090 3088 3087 3086 3085 3081 3076 3077 3080 3082 3084 3085 3087 3087 3087 3087 3083 3082 3083 3083 3085 3087 3086 3086 3084 3085 3086 3082 3081 3083 3086 3087 3088 3089 3086 3087 3084 3066 3051 3044 3034 3028 3021 3016 3025 3028 3028 3033 3033 3035 3038 3038 3039 3040 3039 3039 3037
3078 3078 3076 3077 3082 3083 3082 3083 3084 3086 3088 3087 3082 3073 3069 3071 3071 3073 3075 3075 3077 3081 3083 3080 3079 3080 3079 3078 3078 3080 3084 3084 3082 3081 3081 3079 3074 3069 3072 3075 3076 3079 3082 3084 3084 3084 3084 3082 3080 3079 3077 3079 3081 3079 3078 3078 3079 3078 3076 3078 3080 3080 3082 3083 3085 3082 3080 3079 3065 3050 3043 3028 3016 3016 3016 3020 3024 3024 3026 3027 3028 3031 3032 3033 3033 3033 3033 3031
3071 3069 3066 3069 3074 3073 3074 3076 3078 3081 3082 3078 3073 3067 3065 3066 3067 3069 3072 3072 3075 3077 3075 3075 3076 3076 3075 3075 3075 3077 3079 3078 3077 3077 3075 3073 3068 3064 3067 3071 3072 3075 3077 3079 3079 3078 3080 3079 3076 3074 3073 3075 3073 3070 3069 3069 3070 3072 3072 3074 3073 3074 3076 3075 3076 3072 3069 3071 3062 3052 3044 3016 2997 3009 3016 3015 3020 3021 3021 3021 3022 3024 3027 3027 3027 3027 3026 3025
3064 3061 3057 3061 3065 3064 3066 3068 3069 3072 3071 3066 3064 3061 3059 3061 3064 3066 3068 3068 3070 3070 3069 3070 3071 3072 3070 3070 3071 3072 3073 3072 3072 3072 3069 3067 3064 3061 3064 3067 3068 3071 3072 3073 3073 3073 3075 3075 3072 3071 3070 3068 3063 3060 3060 3059 3061 3064 3064 3066 3067 3068 3071 3069 3068 3066 3063 3066 3060 3054 3045 3008 2986 3003 3011 3009 3015 3016 3015 3016 3015 3018 3022 3022 3023 3022 3021 3020
3057 3053 3049 3052 3055 3057 3059 3059 3059 3061 3059 3056 3054 3053 3054 3057 3059 3060 3062 3063 3063 3063 3064 3064 3065 3065 3065 3065 3065 3066 3067 3066 3065 3065 3063 3061 3060 3059 3060 3062 3064 3066 3067 3067 3067 3067 3069 3068 3068 3068 3064 3059 3056 3055 3054 3053 3055 3057 3057 3059 3059 3061 3065 3066 3064 3059 3056 3057 3050 3047 3040 3005 2985 2999 3005 3004 3009 3010 3011 3011 3008 3012 3016 3016 3017 3017 3015 3015
3049 3044 3043 3045 3047 3050 3051 3049 3050 3052 3048 3044 3045 3046 3049 3051 3051 3052 3055 3056 3057 3057 3058 3058 3057 3058 3058 3058 3058 3059 3061 3059 3057 3057 3054 3053 3055 3055 3057 3059 3059 3060 3061 3062 3062 3062 3064 3064 3064 3063 3060 3057 3054 3051 3049 3049 3051 3054 3053 3054 3055 3056 3058 3057 3054 3049 3047 3046 3039 3040 3036 3003 2983 2996 3002 3000 3004 3005 3006 3005 3003 3007 3010 3010 3011 3010 3009 3009
3041 3038 3038 3039 3040 3042 3043 3041 3042 3041 3036 3036 3040 3042 3044 3044 3045 3046 3047 3049 3050 3051 3051 3049 3049 3050 3051 3052 3053 3053 3054 3052 3049 3048 3048 3049 3049 3049 3052 3054 3052 3054 3056 3055 3056 3059 3061 3060 3060 3059 3057 3054 3049 3045 3044 3044 3047 3048 3046 3047 3049 3048 3047 3047 3045 3041 3040 3036 3031 3039 3035 3000 2980 2992 2997 2996 2999 3000 2999 2998 2999 3002 3003 3004 3005 3003 3003 3003
3035 3033 3032 3031 3031 3031 3030 3029 3030 3029 3029 3033 3035 3036 3037 3037 3038 3039 3039 3040 3042 3043 3042 3041 3041 3044 3045 3047 3048 3048 3048 3046 3042 3041 3044 3043 3041 3041 3045 3047 3047 3048 3049 3049 3051 3054 3055 3055 3057 3057 3055 3051 3045 3040 3038 3038 3041 3041 3039 3041 3042 3041 3044 3043 3040 3039 3034 3024 3023 3034 3024 2992 2979 2989 2993 2994 2996 2995 2994 2994 2996 2998 2998 2999 2999 2998 2998 2997
3029 3025 3024 3024 3022 3018 3017 3019 3022 3022 3024 3027 3027 3029 3031 3030 3030 3033 3033 3033 3034 3035 3034 3034 3036 3038 3039 3041 3042 3041 3041 3040 3037 3037 3038 3036 3033 3034 3037 3039 3041 3041 3043 3045 3046 3047 3048 3048 3049 3049 3047 3043 3036 3032 3031 3033 3036 3034 3033 3034 3035 3036 3038 3035 3034 3033 3022 3013 3020 3025 3005 2981 2981 2990 2989 2990 2993 2991 2990 2992 2993 2995 2994 2994 2994 2993 2992 2991
3020 3016 3016 3018 3014 3009 3008 3013 3016 3015 3016 3019 3019 3021 3023 3021 3022 3025 3026 3025 3025 3026 3027 3028 3030 3032 3033 3034 3034 3031 3031 3031 3032 3032 3030 3028 3027 3028 3029 3031 3034 3036 3038 3040 3041 3042 3041 3039 3038 3037 3034 3032 3028 3026 3028 3031 3031 3029 3028 3029 3030 3030 3029 3029 3026 3017 3009 3013 3016 3008 2990 2981 2986 2988 2981 2982 2988 2989 2988 2990 2991 2991 2989 2988 2988 2987 2986 2985
3012 3006 3007 3011 3008 3003 3003 3005 3006 3004 3008 3011 3010 3011 3014 3014 3016 3018 3017 3017 3018 3020 3020 3021 3023 3024 3024 3025 3024 3021 3021 3023 3025 3023 3020 3020 3022 3023 3024 3025 3028 3030 3032 3034 3035 3036 3033 3030 3029 3028 3025 3025 3025 3024 3026 3026 3024 3024 3024 3024 3025 3023 3023 3023 3011 3000 3007 3014 3002 2988 2987 2990 2989 2982 2972 2972 2981 2986 2985 2985 2986 2985 2983 2982 2982 2981 2980 2979
3006 3000 3001 3004 3000 2996 2995 2997 2998 2999 3002 3003 3002 3004 3007 3009 3010 3010 3009 3011 3012 3013 3014 3012 3013 3013 3013 3016 3016 3013 3015 3018 3016 3013 3011 3014 3017 3018 3019 3021 3022 3024 3026 3028 3029 3029 3027 3023 3023 3022 3019 3020 3021 3020 3021 3021 3020 3020 3020 3019 3018 3016 3014 3010 2999 2995 3002 2999 2984 2982 2991 2993 2985 2972 2964 2968 2976 2980 2980 2979 2979 2978 2977 2976 2976 2974 2973 2972
3003 2998 2997 2997 2992 2989 2989 2992 2994 2994 2994 2996 2995 2996 2999 3000 3000 3003 3005 3006 3004 3005 3006 3003 3001 3003 3004 3007 3008 3007 3008 3009 3005 3004 3006 3009 3011 3012 3014 3015 3016 3017 3019 3020 3021 3023 3020 3016 3017 3018 3014 3014 3015 3013 3015 3017 3016 3014 3014 3013 3010 3006 3006 3002 2993 2989 2991 2985 2981 2986 2991 2987 2974 2960 2960 2969 2973 2973 2974 2973 2972 2971 2970 2971 2970 2967 2965 2965
2997 2995 2995 2992 2986 2985 2987 2987 2989 2986 2986 2989 2987 2987 2991 2991 2991 2996 2998 2997 2996 2996 2997 2994 2993 2996 2998 3000 3002 2999 2999 3000 2998 2999 3002 3003 3004 3007 3008 3008 3009 3011 3013 3013 3013 3015 3012 3009 3012 3013 3009 3006 3006 3006 3009 3013 3010 3009 3011 3008 2999 2995 2999 2995 2983 2980 2983 2982 2981 2986 2985 2976 2959 2951 2962 2969 2966 2967 2969 2967 2965 2963 2963 2965 2964 2960 2958 2957
2992 2991 2993 2988 2979 2979 2982 2981 2982 2979 2977 2979 2978 2980 2983 2982 2985 2990 2988 2986 2989 2989 2989 2989 2991 2994 2993 2993 2995 2992 2991 2993 2993 2995 2998 2997 2998 3001 3001 3001 3003 3004 3004 3005 3005 3006 3005 3003 3005 3007 3003 2997 2997 3000 3003 3006 3006 3006 3004 2994 2985 2987 2990 2981 2972 2976 2981 2979 2978 2980 2973 2958 2946 2951 2963 2963 2959 2962 2962 2959 2957 2955 2955 2957 2955 2953 2951 2950
2987 2985 2987 2983 2972 2970 2973 2974 2974 2971 2968 2969 2970 2972 2973 2974 2981 2986 2981 2978 2982 2984 2984 2986 2988 2989 2987 2985 2987 2986 2987 2989 2989 2991 2994 2994 2993 2994 2994 2994 2995 2996 2996 2998 2998 2998 2998 2997 2997 3000 2996 2989 2992 2996 2997 3001 3002 2996 2987 2979 2978 2982 2979 2968 2966 2974 2978 2977 2974 2967 2956 2948 2947 2953 2956 2954 2955 2956 2954 2951 2949 2946 2947 2948 2947 2945 2944 2942